Weather History for Shepherd Bay, NU

Change the Weather History Date:

Friday, February 22, 2013

  Actual Average Record
Temperature  
Mean Temperature -10 °F -  
Max Temperature -5 °F - - ()
Min Temperature -14 °F - - ()
Degree Days  
Heating Degree Days 76    
Moisture  
Dew Point -    
Average Humidity    
Maximum Humidity    
Minimum Humidity    
Precipitation  
Precipitation 0.00 in - - ()
Sea Level Pressure  
Sea Level Pressure 30.11 in    
Wind  
Wind Speed 14 mph ()    
Max Wind Speed 20 mph    
Max Gust Speed -    
Visibility 5.7 miles    
Events Snow    
T = Trace of Precipitation, MM = Missing Value Source: Averaged Metar Reports

Daily Weather History Graph

Daily Weather History Graph

Search for Another Location

Airport:

Trip Planner

Search our weather history database for the weather conditions in past years. The results will help you decide how hot, cold, wet, or windy it might be!

Date:

Astronomy

Feb. 22, 2013 Rise Set
Actual Time 8:05 AM CST 4:50 PM CST
Civil Twilight 7:04 AM CST 5:51 PM CST
Nautical Twilight 5:57 AM CST 6:58 PM CST
Astronomical Twilight 4:50 AM CST 8:06 PM CST
Moon 12:51 PM CST (2/22) 7:07 AM CST (2/22)
Length of Visible Light 10h 47m
Length of Day
8h 45m
Waxing Gibbous, 90% of the Moon is Illuminated
Feb 22
Waxing Gibbous
Feb 25
Full
Mar 4
Last Quarter
Mar 11
New
Mar 19
First Quarter

Hourly Weather History & Observations

Time (CST) Temp. Windchill Dew Point Humidity Pressure Visibility Wind Dir Wind Speed Gust Speed Precip Events Conditions
12:00 AM -8 °F - - % 30.14 in 2 mi South 18.4 mph - -  
12:00 AM -7.6 °F -31.1 °F - N/A% 30.14 in 2.0 mi South 18.4 mph - N/A Snow Light Snow
12:14 AM -7.6 °F -31.1 °F - N/A% 30.11 in 1.8 mi South 18.4 mph - N/A   Unknown
12:44 AM -7.6 °F -31.1 °F - N/A% 30.12 in 1.8 mi South 18.4 mph - N/A Snow Light Snow
12:59 AM -7.6 °F -31.7 °F - N/A% 30.12 in 1.5 mi South 19.6 mph - N/A   Unknown
1:00 AM -7.6 °F -31.1 °F - N/A% 30.14 in 1.5 mi South 18.4 mph - N/A   Unknown
1:06 AM -7.6 °F -31.1 °F - N/A% 30.12 in 1.5 mi South 18.4 mph - N/A   Unknown
1:23 AM -7.6 °F -31.1 °F - N/A% 30.12 in 1.6 mi South 18.4 mph - N/A   Unknown
1:38 AM -7.6 °F -31.1 °F - N/A% 30.12 in 2.0 mi South 18.4 mph - N/A   Unknown
2:00 AM -9.4 °F -32.1 °F - N/A% 30.14 in 2.2 mi South 16.1 mph - N/A   Unknown
2:21 AM -9.4 °F -32.1 °F - N/A% 30.11 in 3.0 mi South 16.1 mph - N/A   Unknown
2:27 AM -11.2 °F -35.2 °F - N/A% 30.11 in 3.0 mi South 17.3 mph - N/A   Unknown
2:46 AM -11.2 °F -33.7 °F - N/A% 30.11 in 6.0 mi South 15.0 mph - N/A   Unknown
2:48 AM -11.2 °F -33.7 °F - N/A% 30.12 in 8.0 mi South 15.0 mph - N/A   Unknown
3:00 AM -12 °F - - % 30.14 in 9 mi South 12.7 mph - -  
3:00 AM -11.2 °F -32.1 °F - N/A% 30.14 in 9.0 mi South 12.7 mph - N/A   Unknown
4:00 AM -13.0 °F -35.2 °F - N/A% 30.14 in 7.0 mi South 13.8 mph - N/A   Unknown
4:15 AM -11.2 °F -34.4 °F - N/A% 30.12 in 3.0 mi South 16.1 mph - N/A   Unknown
4:16 AM -11.2 °F -34.4 °F - N/A% 30.12 in 3.0 mi South 16.1 mph - N/A   Unknown
4:17 AM -11.2 °F -34.4 °F - N/A% 30.12 in 3.0 mi South 16.1 mph - N/A   Unknown
4:33 AM -11.2 °F -33.7 °F - N/A% 30.11 in 4.0 mi South 15.0 mph - N/A   Unknown
4:40 AM -11.2 °F -34.4 °F - N/A% 30.11 in 6.0 mi South 16.1 mph - N/A   Unknown
4:49 AM -11.2 °F -34.4 °F - N/A% 30.11 in 7.0 mi South 16.1 mph - N/A   Unknown
4:53 AM -11.2 °F -35.2 °F - N/A% 30.11 in 7.0 mi South 17.3 mph - N/A   Unknown
5:00 AM -9.4 °F -32.8 °F - N/A% 30.14 in 6.0 mi South 17.3 mph - N/A   Unknown
5:05 AM -9.4 °F -32.1 °F - N/A% 30.11 in 6.0 mi South 16.1 mph - N/A   Unknown
6:00 AM -10 °F - - % 30.14 in 7 mi South 15.0 mph - -  
6:00 AM -9.4 °F -30.6 °F - N/A% 30.14 in 7.0 mi South 13.8 mph - N/A   Unknown
6:21 AM -9.4 °F -31.4 °F - N/A% 30.11 in 8.0 mi South 15.0 mph - N/A   Unknown
6:31 AM -9.4 °F -32.1 °F - N/A% 30.11 in 4.0 mi South 16.1 mph - N/A   Unknown
6:32 AM -9.4 °F -31.4 °F - N/A% 30.10 in 3.5 mi South 15.0 mph - N/A   Unknown
6:33 AM -9.4 °F -31.4 °F - N/A% 30.10 in 3.0 mi South 15.0 mph - N/A   Unknown
6:50 AM -11.2 °F -33.7 °F - N/A% 30.10 in 5.0 mi South 15.0 mph - N/A   Unknown
6:58 AM -11.2 °F -32.1 °F - N/A% 30.10 in 5.0 mi South 12.7 mph - N/A   Unknown
7:00 AM -11.2 °F -32.9 °F - N/A% 30.13 in 5.0 mi South 13.8 mph - N/A   Unknown
8:00 AM -13.0 °F -35.2 °F - N/A% 30.12 in 8.0 mi South 13.8 mph - N/A   Unknown
9:00 AM -14 °F - - % 30.13 in 9 mi South 12.7 mph - -  
9:00 AM -14.8 °F -36.6 °F - N/A% 30.13 in 9.0 mi South 12.7 mph - N/A   Unknown
10:08 AM -14.8 °F -34.6 °F - N/A% 30.10 in 3.0 mi SSE 10.4 mph - N/A   Unknown
10:25 AM -14.8 °F -34.6 °F - N/A% 30.09 in 7.0 mi South 10.4 mph - N/A   Unknown
11:00 AM -14.8 °F -34.6 °F - N/A% 30.13 in 9.0 mi SSE 10.4 mph - N/A   Unknown
11:30 AM -14.8 °F -35.6 °F - N/A% 30.10 in 7.0 mi SSE 11.5 mph - N/A Snow Light Snow
11:46 AM -13.0 °F -31.3 °F - N/A% 30.10 in 8.0 mi SSE 9.2 mph - N/A   Unknown
12:00 PM -13 °F - - % 30.12 in 7 mi SSE 9.2 mph - -  
12:00 PM -13.0 °F -31.3 °F - N/A% 30.12 in 8.0 mi SSE 9.2 mph - N/A   Unknown
1:00 PM -11.2 °F -29.0 °F - N/A% 30.12 in 4.0 mi SSE 9.2 mph - N/A   Unknown
2:00 PM -11.2 °F -29.0 °F - N/A% 30.11 in 9.0 mi SSE 9.2 mph - N/A   Unknown
3:00 PM -10 °F - - % 30.10 in 9 mi ESE 6.9 mph - -  
3:00 PM -9.4 °F -24.3 °F - N/A% 30.10 in 9.0 mi ESE 6.9 mph - N/A   Unknown
4:00 PM -9.4 °F -27.9 °F - N/A% 30.09 in 9.0 mi SE 10.4 mph - N/A   Unknown
5:00 PM -9.4 °F -27.9 °F - N/A% 30.09 in 7.0 mi SE 10.4 mph - N/A   Unknown
6:00 PM -8 °F - - % 30.09 in 7 mi SE 11.5 mph - -  
6:00 PM -7.6 °F -26.6 °F - N/A% 30.09 in 8.0 mi SE 11.5 mph - N/A   Unknown
7:00 PM -7.6 °F -26.6 °F - N/A% 30.07 in 6.0 mi SE 11.5 mph - N/A   Unknown
7:17 PM -7.6 °F -26.6 °F - N/A% 30.04 in 6.0 mi SE 11.5 mph - N/A   Unknown
8:00 PM -9.4 °F -29.8 °F - N/A% 30.06 in 7.0 mi SE 12.7 mph - N/A   Unknown
9:00 PM -9 °F - - % 30.05 in 9 mi ESE 10.4 mph - -  
9:00 PM -9.4 °F -27.9 °F - N/A% 30.05 in 9.0 mi SE 10.4 mph - N/A   Unknown
10:00 PM -7.6 °F -25.7 °F - N/A% 30.04 in 9.0 mi SE 10.4 mph - N/A   Unknown
11:00 PM -5.8 °F -22.4 °F - N/A% 30.04 in 4.0 mi ESE 9.2 mph - N/A   Unknown